TimeEST,TemperatureF,Dew PointF,Humidity,Sea Level PressureIn,VisibilityMPH,Wind Direction,Wind SpeedMPH,Gust SpeedMPH,PrecipitationIn,Events,Conditions,WindDirDegrees,DateUTC
12:53 AM,48.0,44.1,86,30.44,10.0,SE,12.7,-,N/A,,Overcast,130,2012-12-02 05:53:00
1:53 AM,48.0,45.0,89,30.44,10.0,ESE,10.4,-,N/A,,Overcast,120,2012-12-02 06:53:00
2:53 AM,48.9,46.0,90,30.42,10.0,ESE,9.2,-,N/A,,Overcast,120,2012-12-02 07:53:00
3:10 AM,48.2,46.4,93,30.41,10.0,ESE,10.4,-,N/A,,Overcast,120,2012-12-02 08:10:00
3:53 AM,48.9,46.0,90,30.40,10.0,SE,15.0,-,N/A,,Mostly Cloudy,140,2012-12-02 08:53:00
4:12 AM,48.2,46.4,93,30.40,10.0,SE,9.2,-,N/A,,Mostly Cloudy,140,2012-12-02 09:12:00
4:27 AM,48.2,46.4,93,30.39,10.0,SE,11.5,-,N/A,,Mostly Cloudy,140,2012-12-02 09:27:00
4:53 AM,48.9,46.9,93,30.39,10.0,SE,10.4,-,N/A,,Partly Cloudy,140,2012-12-02 09:53:00
5:53 AM,48.9,46.9,93,30.38,10.0,SE,8.1,-,0.00,,Overcast,140,2012-12-02 10:53:00
6:15 AM,50.0,48.2,94,30.37,10.0,SSE,10.4,-,N/A,,Mostly Cloudy,150,2012-12-02 11:15:00
6:53 AM,51.1,48.0,89,30.37,10.0,SSE,13.8,-,N/A,,Scattered Clouds,150,2012-12-02 11:53:00
7:53 AM,52.0,48.9,89,30.37,10.0,SSE,13.8,-,0.01,,Mostly Cloudy,160,2012-12-02 12:53:00
8:09 AM,51.8,50.0,94,30.36,9.0,SSE,15.0,21.9,N/A,,Mostly Cloudy,160,2012-12-02 13:09:00
8:50 AM,53.6,51.8,94,30.36,10.0,South,15.0,23.0,0.00,,Mostly Cloudy,180,2012-12-02 13:50:00
8:53 AM,53.1,51.1,93,30.36,10.0,South,15.0,-,0.00,,Mostly Cloudy,180,2012-12-02 13:53:00
9:24 AM,53.6,51.8,94,30.35,10.0,South,11.5,-,N/A,,Scattered Clouds,180,2012-12-02 14:24:00
9:53 AM,55.9,53.1,90,30.35,10.0,South,9.2,-,N/A,,Clear,180,2012-12-02 14:53:00
10:53 AM,57.9,51.1,78,30.31,10.0,SW,9.2,-,N/A,,Clear,220,2012-12-02 15:53:00
11:53 AM,57.0,50.0,77,30.29,10.0,SSW,6.9,-,N/A,,Overcast,200,2012-12-02 16:53:00
12:53 PM,57.0,48.9,74,30.25,10.0,South,6.9,-,N/A,,Overcast,180,2012-12-02 17:53:00
1:53 PM,57.0,51.1,81,30.22,10.0,South,13.8,-,N/A,,Partly Cloudy,190,2012-12-02 18:53:00
2:53 PM,57.0,53.1,87,30.20,10.0,South,13.8,20.7,N/A,,Mostly Cloudy,180,2012-12-02 19:53:00
3:08 PM,57.2,53.6,88,30.19,10.0,South,11.5,-,N/A,,Mostly Cloudy,190,2012-12-02 20:08:00
3:18 PM,55.4,51.8,88,30.19,10.0,South,13.8,-,N/A,,Mostly Cloudy,180,2012-12-02 20:18:00
3:53 PM,55.9,52.0,87,30.18,10.0,South,15.0,23.0,N/A,,Scattered Clouds,190,2012-12-02 20:53:00
4:53 PM,54.0,53.1,97,30.19,10.0,WSW,8.1,-,N/A,,Partly Cloudy,240,2012-12-02 21:53:00
5:53 PM,53.1,51.1,93,30.18,10.0,SW,11.5,-,N/A,,Scattered Clouds,220,2012-12-02 22:53:00
6:53 PM,52.0,50.0,93,30.18,10.0,SW,10.4,-,N/A,,Scattered Clouds,220,2012-12-02 23:53:00
7:53 PM,51.1,48.9,92,30.15,10.0,SW,10.4,-,N/A,,Scattered Clouds,220,2012-12-03 00:53:00
8:53 PM,51.1,50.0,96,30.14,10.0,SW,9.2,-,N/A,,Scattered Clouds,220,2012-12-03 01:53:00
9:53 PM,52.0,50.0,93,30.13,10.0,SSW,11.5,-,N/A,,Clear,210,2012-12-03 02:53:00
10:53 PM,53.1,51.1,93,30.13,10.0,SW,10.4,-,N/A,,Overcast,220,2012-12-03 03:53:00
11:53 PM,54.0,51.1,90,30.11,9.0,SW,10.4,-,0.00,,Overcast,220,2012-12-03 04:53:00